GW0842 Weather Reports


time (UTC)temp
C
wind
direction
speed
KPH
gust
KPH
rain 1hr
cm
rain 24hr
cm
rain mn
cm
humidity
%
barometer
mb
20260508025832 12 180 0.0 0.0 0.00 0.00 0.00 99 1026.3
20260508025330 12 180 0.0 0.0 0.00 0.00 0.00 99 1026.3
20260508024826 12 254 0.0 3.2 0.00 0.00 0.00 99 1026.3
20260508024323 12 215 0.0 0.0 0.00 0.00 0.00 99 1026.4
20260508023820 12 215 0.0 1.6 0.00 0.00 0.00 99 1026.0
20260508023316 12 203 3.2 3.2 0.00 0.00 0.00 99 1025.8
20260508022813 12 200 1.6 3.2 0.00 0.00 0.00 99 1026.0
20260508022309 12 180 0.0 1.6 0.00 0.00 0.00 99 1026.0
20260508021807 12 195 1.6 3.2 0.00 0.00 0.00 99 1025.9
20260508021302 12 255 0.0 0.0 0.00 0.00 0.00 99 1025.8
20260508020758 12 246 0.0 3.2 0.00 0.00 0.00 99 1026.0
20260508020256 12 180 0.0 0.0 0.00 0.00 0.00 99 1025.6
20260508015753 12 180 0.0 0.0 0.00 0.00 0.00 99 1025.7
20260508015250 12 192 3.2 3.2 0.00 0.00 0.00 99 1025.6
20260508014747 12 209 0.0 3.2 0.00 0.00 0.00 99 1025.7
20260508014244 12 229 0.0 3.2 0.00 0.00 0.00 99 1025.5
20260508013739 12 285 0.0 0.0 0.00 0.00 0.00 99 1025.1
20260508013236 12 166 0.0 1.6 0.00 0.00 0.00 99 1025.2
20260508012734 12 111 0.0 0.0 0.00 0.00 0.00 99 1025.1
20260508012230 12 111 0.0 1.6 0.00 0.00 0.00 99 1024.7
20260508011729 12 220 0.0 0.0 0.00 0.00 0.00 99 1025.1
20260508011226 12 220 0.0 3.2 0.00 0.00 0.00 99 1025.0
20260508010722 12 340 0.0 0.0 0.00 0.00 0.00 99 1025.1
20260508010220 12 297 0.0 0.0 0.00 0.00 0.00 99 1025.2
20260508005717 12 262 0.0 0.0 0.00 0.00 0.00 99 1025.0
20260508005214 12 15 0.0 3.2 0.00 0.00 0.00 99 1024.9
20260508004710 12 346 0.0 0.0 0.00 0.00 0.00 99 1025.0
20260508004206 12 243 0.0 0.0 0.00 0.00 0.00 99 1024.9
20260508003703 12 261 0.0 0.0 0.00 0.00 0.00 99 1024.8
20260508003200 12 320 0.0 0.0 0.00 0.00 0.00 99 1024.7
20260508002656 12 106 1.6 3.2 0.00 0.00 0.00 99 1024.6
20260508002155 12 77 0.0 3.2 0.00 0.00 0.00 99 1025.0
20260508001650 12 97 0.0 0.0 0.00 0.00 0.00 99 1024.4
20260508001146 13 146 3.2 3.2 0.00 0.00 0.00 99 1024.4
20260508000642 12 117 0.0 4.8 0.00 0.00 0.00 99 1024.4
20260508000139 12 106 0.0 1.6 0.00 0.00 0.00 99 1024.5
20260507235636 12 99 0.0 3.2 0.00 0.00 0.00 99 1024.4
20260507235133 13 127 0.0 3.2 0.00 0.00 0.00 99 1024.6
20260507234630 13 90 0.0 3.2 0.00 0.00 0.00 99 1024.4
20260507234126 13 328 0.0 3.2 0.00 0.00 0.00 99 1024.1
20260507233623 13 66 0.0 3.2 0.00 0.00 0.00 99 1024.2
20260507233122 13 84 0.0 3.2 0.00 0.00 0.00 99 1024.4
20260507232618 13 111 0.0 0.0 0.00 0.00 0.00 99 1024.2
20260507232115 13 114 0.0 1.6 0.00 0.00 0.00 99 1024.0
20260507231611 13 102 0.0 4.8 0.00 0.00 0.00 99 1023.9
20260507231109 13 157 0.0 3.2 0.00 0.00 0.00 99 1023.6
20260507230605 13 53 4.8 8.0 0.00 0.00 0.00 99 1023.5
20260507225557 13 195 0.0 3.2 0.00 0.00 0.00 99 1023.7
20260507225053 13 122 4.8 6.4 0.00 0.00 0.00 98 1023.4
20260507224549 13 95 3.2 4.8 0.00 0.00 0.00 99 1023.5
20260507224046 13 131 3.2 6.4 0.00 0.00 0.00 98 1023.4
20260507223542 13 169 0.0 6.4 0.00 0.00 0.00 98 1023.7
20260507223040 13 173 1.6 9.7 0.00 0.00 0.00 98 1023.5
20260507222537 13 20 1.6 8.0 0.00 0.00 0.00 98 1023.4
20260507222033 13 250 0.0 11.3 0.00 0.00 0.00 97 1023.5
20260507221529 13 120 0.0 9.7 0.00 0.00 0.00 97 1023.6
20260507221026 13 157 0.0 4.8 0.00 0.00 0.00 99 1023.8
20260507220523 13 87 9.7 14.5 0.00 0.00 0.00 97 1023.9
20260507220021 13 109 4.8 8.0 0.00 0.00 0.00 98 1024.1
20260507215517 13 343 4.8 6.4 0.00 0.00 0.00 98 1023.7
20260507215015 13 173 0.0 4.8 0.00 0.00 0.00 99 1023.9
20260507214511 13 270 4.8 8.0 0.00 0.00 0.00 98 1023.2
20260507214007 13 83 11.3 11.3 0.00 0.00 0.00 98 1023.4
20260507213504 13 43 6.4 11.3 0.00 0.00 0.00 99 1023.4
20260507213001 13 82 6.4 9.7 0.00 0.00 0.00 98 1023.5
20260507212457 13 76 9.7 11.3 0.00 0.00 0.00 98 1023.5
20260507211954 13 78 0.0 9.7 0.00 0.00 0.00 98 1023.5
20260507211450 13 69 1.6 6.4 0.00 0.00 0.00 99 1023.2
20260507210947 13 124 3.2 6.4 0.00 0.00 0.00 98 1023.4
20260507210444 13 206 1.6 8.0 0.00 0.00 0.00 99 1023.4
20260507205941 13 80 3.2 9.7 0.00 0.00 0.00 99 1023.6
20260507205438 13 209 0.0 9.7 0.00 0.00 0.00 99 1023.5
20260507204934 13 20 9.7 9.7 0.00 0.00 0.00 99 1023.1
20260507204430 13 105 3.2 11.3 0.00 0.00 0.00 99 1023.1
20260507203928 13 23 8.0 9.7 0.00 0.00 0.00 99 1023.1
20260507203426 13 257 3.2 8.0 0.00 0.00 0.00 99 1023.0
20260507202922 13 21 3.2 14.5 0.00 0.00 0.00 99 1022.9
20260507202419 13 52 8.0 9.7 0.00 0.00 0.00 99 1023.2
20260507201914 13 90 4.8 4.8 0.00 0.00 0.00 99 1023.1
20260507201410 13 77 0.0 9.7 0.00 0.00 0.00 99 1023.0
20260507200907 13 312 0.0 9.7 0.00 0.00 0.00 99 1023.1
20260507200403 13 103 1.6 9.7 0.00 0.00 0.00 99 1023.0
20260507195858 13 80 8.0 12.9 0.00 0.00 0.00 99 1023.1
20260507195356 13 66 3.2 12.9 0.00 0.00 0.00 99 1023.0
20260507194853 13 83 4.8 6.4 0.00 0.00 0.00 99 1022.8
20260507194349 13 60 0.0 9.7 0.00 0.00 0.00 99 1022.9
20260507193846 13 29 0.0 11.3 0.00 0.00 0.00 99 1023.1
20260507193343 13 39 12.9 24.1 0.00 0.00 0.00 99 1022.9
20260507192839 13 88 8.0 9.7 0.00 0.00 0.00 99 1023.3
20260507192336 13 90 0.0 6.4 0.00 0.00 0.00 99 1023.2
20260507191832 13 330 3.2 4.8 0.00 0.00 0.00 99 1023.3
20260507191328 13 5 4.8 11.3 0.00 0.00 0.00 99 1023.3
20260507190826 13 35 1.6 8.0 0.00 0.00 0.00 99 1023.4
20260507190324 13 65 3.2 12.9 0.00 0.00 0.00 99 1023.2
20260507185823 13 205 0.0 6.4 0.00 0.00 0.00 99 1023.2
20260507185319 13 270 3.2 6.4 0.00 0.00 0.00 99 1023.0
20260507184816 13 98 4.8 8.0 0.00 0.00 0.00 99 1023.1
20260507184314 13 3 0.0 8.0 0.00 0.00 0.00 99 1022.9
20260507183811 13 56 8.0 8.0 0.00 0.00 0.00 99 1023.0
20260507183308 13 209 3.2 3.2 0.00 0.00 0.00 99 1023.2
20260507182805 13 255 0.0 4.8 0.00 0.00 0.00 99 1023.4
20260507182300 13 128 4.8 8.0 0.00 0.00 0.00 99 1023.0
20260507181757 13 101 3.2 9.7 0.00 0.00 0.00 99 1022.7
20260507181253 13 83 4.8 22.5 0.00 0.00 0.00 99 1022.6
20260507180750 13 83 6.4 12.9 0.00 0.00 0.00 99 1022.7
20260507180247 13 86 4.8 4.8 0.00 0.00 0.00 99 1022.7
20260507175742 13 90 0.0 11.3 0.00 0.00 0.00 99 1022.8
20260507175240 13 212 0.0 3.2 0.00 0.00 0.00 99 1022.9
20260507174737 13 50 4.8 9.7 0.00 0.00 0.00 99 1022.5
20260507174235 13 90 0.0 12.9 0.00 0.00 0.00 99 1022.7
20260507173732 13 116 8.0 9.7 0.00 0.00 0.00 99 1023.6
20260507173229 13 3 6.4 14.5 0.00 0.00 0.00 99 1023.6
20260507172726 13 75 3.2 8.0 0.00 0.00 0.00 99 1023.0
20260507172223 13 11 9.7 11.3 0.00 0.00 0.00 99 1022.8
20260507171722 14 238 0.0 6.4 0.00 0.00 0.00 99 1022.9
20260507171220 14 32 3.2 4.8 0.00 0.00 0.00 99 1022.6
20260507170717 14 14 4.8 8.0 0.00 0.00 0.00 99 1022.1
20260507170214 14 15 0.0 9.7 0.00 0.00 0.00 99 1022.5
20260507165709 14 352 3.2 12.9 0.00 0.00 0.00 99 1022.3
20260507165206 15 154 0.0 4.8 0.00 0.00 0.00 99 1021.7
20260507164702 15 47 4.8 16.1 0.00 0.00 0.00 99 1022.5
20260507164159 15 61 0.0 9.7 0.00 0.00 0.00 99 1022.4
20260507163656 16 270 3.2 8.0 0.00 0.00 0.00 99 1022.0
20260507163154 19 74 4.8 4.8 0.00 0.00 0.00 99 1021.9
20260507162650 19 90 0.0 3.2 0.00 0.00 0.00 99 1022.5
20260507162146 19 98 0.0 1.6 0.00 0.00 0.00 99 1022.5
20260507161642 19 14 0.0 1.6 0.00 0.00 0.00 99 1022.6
20260507161139 19 270 0.0 4.8 0.00 0.00 0.00 99 1023.1
20260507160635 19 251 1.6 3.2 0.00 0.00 0.00 99 1023.1
20260507160132 19 262 0.0 3.2 0.00 0.00 0.00 99 1023.0
20260507155628 19 195 0.0 1.6 0.00 0.00 0.00 99 1023.0
20260507155125 19 270 1.6 6.4 0.00 0.00 0.00 99 1023.1
20260507154621 19 209 0.0 0.0 0.00 0.00 0.00 99 1022.9
20260507154119 19 270 0.0 3.2 0.00 0.00 0.00 99 1023.0
20260507153615 18 86 0.0 6.4 0.00 0.00 0.00 99 1022.7
20260507153112 19 339 3.2 4.8 0.00 0.00 0.00 99 1022.6
20260507152608 20 270 0.0 0.0 0.00 0.00 0.00 99 1022.6
20260507152104 20 270 0.0 1.6 0.00 0.00 0.00 99 1022.6
20260507151600 20 262 0.0 0.0 0.00 0.00 0.00 99 1022.5
20260507151057 20 254 0.0 0.0 0.00 0.00 0.00 99 1022.9
20260507150555 20 279 0.0 1.6 0.00 0.00 0.00 99 1023.0
20260507150051 19 254 1.6 3.2 0.00 0.00 0.00 99 1022.8
20260507145546 19 240 0.0 1.6 0.00 0.00 0.00 99 1022.8
20260507145044 19 90 0.0 1.6 0.00 0.00 0.00 99 1022.6
20260507144540 20 111 0.0 1.6 0.00 0.00 0.00 99 1022.6
20260507144038 19 90 0.0 0.0 0.00 0.00 0.00 99 1022.7
20260507143535 19 212 3.2 3.2 0.00 0.00 0.00 99 1022.8
20260507143033 19 240 0.0 0.0 0.00 0.00 0.00 99 1022.6
20260507142527 19 255 0.0 0.0 0.00 0.00 0.00 99 1022.7
20260507142025 19 270 0.0 0.0 0.00 0.00 0.00 99 1022.6
20260507141520 19 270 1.6 3.2 0.00 0.00 0.00 99 1022.9
20260507141017 19 246 0.0 0.0 0.00 0.00 0.00 99 1022.8
20260507140515 19 261 0.0 3.2 0.00 0.00 0.00 99 1022.9
20260507140012 19 180 0.0 3.2 0.00 0.00 0.00 99 1022.6
20260507135508 19 261 0.0 1.6 0.00 0.00 0.00 99 1022.6
20260507135006 19 279 0.0 1.6 0.00 0.00 0.00 99 1022.9
20260507134502 19 194 0.0 1.6 0.00 0.00 0.00 99 1023.1
20260507133958 19 230 0.0 4.8 0.00 0.00 0.00 99 1023.1
20260507133454 18 240 0.0 6.4 0.00 0.00 0.00 99 1023.4
20260507132953 19 307 0.0 3.2 0.00 0.00 0.00 99 1023.2
20260507132449 18 289 1.6 3.2 0.00 0.00 0.00 99 1023.4
20260507131945 18 254 1.6 4.8 0.00 0.00 0.00 99 1023.4
20260507131442 18 270 0.0 3.2 0.00 0.00 0.00 99 1023.5
20260507130939 18 206 0.0 3.2 0.00 0.00 0.00 99 1023.2
20260507130436 18 270 0.0 0.0 0.00 0.00 0.00 99 1023.3
20260507125935 18 188 0.0 3.2 0.00 0.00 0.00 99 1023.2
20260507125433 18 259 3.2 3.2 0.00 0.00 0.00 99 1023.3
20260507124930 18 131 0.0 3.2 0.00 0.00 0.00 99 1023.3
20260507124426 18 246 1.6 3.2 0.00 0.00 0.00 99 1023.4
20260507123925 18 249 0.0 3.2 0.00 0.00 0.00 99 1023.5
20260507123422 18 234 0.0 1.6 0.00 0.00 0.00 99 1023.3
20260507122918 18 234 1.6 1.6 0.00 0.00 0.00 99 1023.4
20260507122413 18 270 0.0 0.0 0.00 0.00 0.00 99 1023.4
20260507121910 18 261 0.0 0.0 0.00 0.00 0.00 99 1023.1
20260507121405 18 99 0.0 0.0 0.00 0.00 0.00 99 1023.1
20260507120902 18 166 0.0 0.0 0.00 0.00 0.00 99 1023.2
20260507120358 18 166 0.0 1.6 0.00 0.00 0.00 99 1023.3
20260507115854 18 131 0.0 3.2 0.00 0.00 0.00 99 1023.3
20260507115350 18 270 0.0 0.0 0.00 0.00 0.00 99 1023.5
20260507114846 18 234 0.0 1.6 0.00 0.00 0.00 99 1023.3
20260507114343 18 131 0.0 0.0 0.00 0.00 0.00 99 1023.1
20260507113841 18 151 0.0 0.0 0.00 0.00 0.00 99 1023.7
20260507113337 18 151 0.0 1.6 0.00 0.00 0.00 99 1023.6
20260507112835 18 151 3.2 3.2 0.00 0.00 0.00 99 1023.8
20260507112332 18 246 0.0 0.0 0.00 0.00 0.00 99 1023.7
20260507111830 18 243 0.0 4.8 0.00 0.00 0.00 99 1023.6
20260507111326 18 257 0.0 0.0 0.00 0.00 0.00 99 1023.5
20260507110822 18 270 0.0 0.0 0.00 0.00 0.00 99 1023.7
20260507110319 18 254 0.0 1.6 0.00 0.00 0.00 99 1023.6
20260507105816 17 215 0.0 0.0 0.00 0.00 0.00 99 1023.6
20260507105312 17 236 0.0 4.8 0.00 0.00 0.00 99 1023.4
20260507104809 17 270 0.0 0.0 0.00 0.00 0.00 99 1023.3
20260507104306 17 261 0.0 0.0 0.00 0.00 0.00 99 1023.5
20260507103802 17 261 0.0 1.6 0.00 0.00 0.00 99 1023.3
20260507103258 17 270 0.0 0.0 0.00 0.00 0.00 99 1023.3
20260507102755 17 0 0.0 1.6 0.00 0.00 0.00 99 1023.2
20260507102252 17 195 0.0 0.0 0.00 0.00 0.00 99 1023.1
20260507101748 17 195 0.0 0.0 0.00 0.00 0.00 99 1023.0
20260507101243 17 180 0.0 0.0 0.00 0.00 0.00 99 1023.0
20260507100740 17 194 0.0 1.6 0.00 0.00 0.00 99 1023.2
20260507100238 17 246 0.0 1.6 0.00 0.00 0.00 99 1023.3
20260507095736 17 262 0.0 0.0 0.00 0.00 0.00 99 1023.4
20260507095232 17 255 0.0 1.6 0.00 0.00 0.00 99 1023.2
20260507094729 17 270 0.0 0.0 0.00 0.00 0.00 99 1023.2
20260507094226 17 203 0.0 0.0 0.00 0.00 0.00 99 1023.1
20260507093723 17 66 0.0 1.6 0.00 0.00 0.00 99 1023.4
20260507093222 17 263 0.0 3.2 0.00 0.00 0.00 99 1023.3
20260507092719 17 180 0.0 1.6 0.00 0.00 0.00 99 1023.2
20260507092215 17 180 0.0 0.0 0.00 0.00 0.00 99 1023.2
20260507091711 17 200 0.0 1.6 0.00 0.00 0.00 99 1023.2
20260507091208 17 188 0.0 0.0 0.00 0.00 0.00 99 1023.3
20260507090703 17 188 0.0 0.0 0.00 0.00 0.00 99 1023.2
20260507090200 17 173 0.0 1.6 0.00 0.00 0.00 99 1023.3
20260507085657 17 203 0.0 3.2 0.00 0.00 0.00 99 1023.6
20260507085154 17 172 0.0 4.8 0.00 0.00 0.00 99 1023.4
20260507084651 17 200 0.0 3.2 0.00 0.00 0.00 99 1023.5
20260507084148 18 203 0.0 3.2 0.00 0.00 0.00 99 1023.5
20260507083644 17 173 0.0 3.2 0.00 0.00 0.00 99 1023.4
20260507083141 18 165 0.0 1.6 0.00 0.00 0.00 99 1023.3
20260507082637 17 349 0.0 3.2 0.00 0.00 0.00 99 1023.8
20260507082134 17 180 0.0 4.8 0.00 0.00 0.00 99 1024.0
20260507081631 18 180 0.0 1.6 0.00 0.00 0.00 99 1023.9
20260507081127 17 208 0.0 3.2 0.00 0.00 0.00 99 1024.0
20260507080623 17 203 0.0 0.0 0.00 0.00 0.00 99 1023.7
20260507080120 17 209 0.0 1.6 0.00 0.00 0.00 99 1023.7
20260507075620 17 203 0.0 1.6 0.00 0.00 0.00 99 1023.5
20260507075116 18 157 0.0 3.2 0.00 0.00 0.00 99 1023.5
20260507074613 17 172 0.0 3.2 0.00 0.00 0.00 99 1023.9
20260507074112 18 200 0.0 3.2 0.00 0.00 0.00 99 1023.7
20260507073608 18 83 1.6 4.8 0.00 0.00 0.00 99 1024.0
20260507073104 18 180 0.0 3.2 0.00 0.00 0.00 99 1024.4
20260507072602 17 180 0.0 1.6 0.00 0.00 0.00 99 1024.2
20260507072059 18 186 0.0 0.0 0.00 0.00 0.00 99 1024.3
20260507071556 18 186 0.0 1.6 0.00 0.00 0.00 99 1024.1
20260507071052 18 203 0.0 1.6 0.00 0.00 0.00 99 1024.4
20260507070549 18 180 0.0 3.2 0.00 0.00 0.00 99 1024.4
20260507070046 18 233 0.0 3.2 0.00 0.00 0.00 99 1024.4
20260507065543 18 203 0.0 1.6 0.00 0.00 0.00 99 1024.3
20260507065040 18 111 0.0 1.6 0.00 0.00 0.00 99 1024.2
20260507064538 18 201 0.0 3.2 0.00 0.00 0.00 99 1024.8
20260507064036 18 173 0.0 1.6 0.00 0.00 0.00 99 1025.0
20260507063533 18 209 0.0 3.2 0.00 0.00 0.00 99 1025.2
20260507063030 18 206 0.0 3.2 0.00 0.00 0.00 99 1025.3
20260507062527 18 198 0.0 1.6 0.00 0.00 0.00 99 1025.2
20260507062025 18 203 0.0 3.2 0.00 0.00 0.00 99 1025.1
20260507061522 18 270 0.0 1.6 0.00 0.00 0.00 99 1024.6
20260507061020 18 180 0.0 1.6 0.00 0.00 0.00 99 1024.5
20260507060518 18 126 1.6 3.2 0.00 0.00 0.00 99 1024.5
20260507060014 18 240 0.0 1.6 0.00 0.00 0.00 99 1025.0
20260507055509 18 165 0.0 3.2 0.00 0.00 0.00 99 1025.0
20260507055005 18 186 1.6 3.2 0.00 0.00 0.00 99 1025.0
20260507054501 18 192 0.0 1.6 0.00 0.00 0.00 99 1025.0
20260507053959 18 188 0.0 0.0 0.00 0.00 0.00 99 1025.1
20260507053457 18 188 0.0 0.0 0.00 0.00 0.00 99 1025.2
20260507052954 18 180 3.2 3.2 0.00 0.00 0.00 99 1024.9
20260507052452 18 270 3.2 3.2 0.00 0.00 0.00 99 1024.9
20260507051949 18 19 0.0 4.8 0.00 0.00 0.00 99 1025.5
20260507051446 18 282 3.2 3.2 0.00 0.00 0.00 99 1025.2
20260507050943 18 113 4.8 4.8 0.00 0.00 0.00 99 1024.6
20260507050439 18 283 0.0 4.8 0.00 0.00 0.00 99 1025.3
20260507045937 18 276 0.0 3.2 0.00 0.00 0.00 99 1025.1
20260507045433 18 187 0.0 1.6 0.00 0.00 0.00 99 1024.8
20260507044930 18 220 0.0 4.8 0.00 0.00 0.00 99 1024.8
20260507044427 18 243 3.2 3.2 0.00 0.00 0.00 99 1025.0
20260507043923 18 195 0.0 4.8 0.00 0.00 0.00 99 1024.8
20260507043419 18 169 3.2 6.4 0.00 0.00 0.00 99 1025.7
20260507042916 18 202 3.2 4.8 0.00 0.00 0.00 99 1026.2
20260507042413 19 180 0.0 4.8 0.00 0.00 0.00 99 1026.5
20260507041908 19 270 4.8 8.0 0.00 0.00 0.00 99 1026.9
20260507041405 19 221 8.0 8.0 0.00 0.00 0.00 99 1026.9
20260507040903 19 215 4.8 6.4 0.00 0.00 0.00 99 1026.7
20260507040358 18 169 3.2 3.2 0.00 0.00 0.00 99 1026.7
20260507035854 18 255 0.0 3.2 0.00 0.00 0.00 99 1026.4
20260507035350 19 200 0.0 6.4 0.00 0.00 0.00 99 1026.3
20260507034848 18 276 3.2 3.2 0.00 0.00 0.00 99 1025.8
20260507034345 19 270 3.2 4.8 0.00 0.00 0.00 99 1025.7
20260507033843 19 315 3.2 4.8 0.00 0.00 0.00 99 1025.6
20260507033340 19 0 0.0 1.6 0.00 0.00 0.00 99 1025.1
20260507032837 19 254 0.0 1.6 0.00 0.00 0.00 99 1025.1
20260507032333 19 145 0.0 3.2 0.00 0.00 0.00 99 1025.5
20260507031830 19 266 3.2 4.8 0.00 0.00 0.00 99 1025.7
20260507031327 19 327 3.2 3.2 0.00 0.00 0.00 99 1025.7
20260507030823 20 263 1.6 8.0 0.00 0.00 0.00 99 1026.0
20260507030321 20 294 0.0 3.2 0.00 0.00 0.00 99 1025.6